Suggestion Search

Define a bounding box (note: it will not wrap North/South over poles). If the range is zero degrees, a bounding box will not be used to constrain the search.

Centered On °   °

Match text in the suggestion title, science rationale or special notes. The search is case-insensitive. % is a wildcard (_ for a single character).

Find
Search

You may select science themes to limit query, otherwise suggestions from all themes will be returned.

Multiple values may be selected (shift + click).

  Rows per page
3,969 records found, displaying 601 to 700.[First/Prev] 3, 4, 5, 6, 7, 8, 9, 10 [Next/Last]
ID Suggestion Title Latitude Longitude Repeat Created Observation ID
40101 Sinuous ridges associated with Cusus Valles 15.828 49.377 1 2009-12-14 ESP_015943_1960
40103 Craters in Noachis Terra -41.703 30.092 1 2009-12-14 ESP_015944_1380
40105 North Arabia Terra monitoring site 42.234 18.387 1 2009-12-14 ESP_015944_2225
40107 Exposure of mid-latitude apron interior by younger gully -42.513 308.755 1 2009-12-14 ESP_015947_1370
40109 Crater in the Tempe Fossae region 40.765 297.492 1 2009-12-14 ESP_015947_2210
40111 Faults in olivine-rich terrain 43.290 269.673 1 2009-12-14 ESP_015948_2235
40113 Gullied crater wall -40.295 225.795 1 2009-12-14 ESP_015950_1395
40115 Gullied crater wall 36.318 107.803 1 2009-12-14 ESP_015954_2165
40117 Depressions within mantling unit on knobs in Promethei Terra -57.779 93.180 1 2009-12-14 ESP_015955_1220
40119 Olivine-rich terrain 3.911 83.510 1 2009-12-14 ESP_015955_1840
40121 Olivine-rich terrain -15.920 59.380 1 2009-12-14 ESP_015956_1640
40123 Protonilus Mensae fretted terrain in northern plains transition area 40.698 51.237 1 2009-12-14 ESP_015956_2210
40125 Possible phyllosilicates-rich terrain 29.590 25.670 1 2009-12-14 ESP_015957_2100
40127 Layer exposure in crater north of Meridiani Planum 3.589 1.148 1 2009-12-14 ESP_015958_1835
40129 Gully alcove with material mantling the slope -38.022 313.452 1 2009-12-14 ESP_015960_1415
40131 New 80-meter diameter crater formed between August 1976 and May 1999 -10.625 254.128 1 2009-12-14 ESP_015962_1695
40133 Olivine-rich small crater in Terra Sirenum -37.110 230.740 1 2009-12-14 ESP_015963_1425
40135 Possible sulfate-rich terrain -11.401 173.000 1 2009-12-14 ESP_015965_1685
40137 Greater Hellas region crater rim or escarpment -46.150 95.751 1 2009-12-14 ESP_015968_1335
40139 Possible olivine-rich terrain on etched intercrater plains deposit -2.531 62.210 1 2009-12-14 ESP_015969_1775
40141 Crater 32.047 3.744 1 2009-12-14 ESP_015971_2125
40143 Sinuous ridge and channel features at east end of Frento Vallis system -49.904 347.077 1 2009-12-14 ESP_015972_1300
40145 Hydrated and unaltered mineralogy in north plains crater 46.200 334.066 1 2009-12-14 ESP_015972_2265
40147 Northern mid-latitude crater 33.187 309.491 1 2009-12-14 ESP_015973_2135
40149 Sulfate layered stratigraphy in Ophir region -3.950 285.750 1 2009-12-14 ESP_015974_1760
40151 Sinuous ridge and neighboring landforms -46.126 351.609 1 2009-12-14 ESP_015985_1335
40153 Nereidum Montes -42.803 323.776 1 2009-12-14 ESP_015986_1370
40155 Shalbatana Vallis 6.914 317.600 1 2009-12-14 ESP_015986_1870
40157 Gullied crater wall -48.976 270.223 1 2009-12-14 ESP_015988_1305
40159 North mid-latitude crater 44.459 203.041 1 2009-12-14 ESP_015990_2250
40161 Crater in Utopia Planitia region 50.089 147.369 1 2009-12-14 ESP_015992_2305
40163 Crater wall in Tyrrhena Terra -8.060 100.623 1 2009-12-14 ESP_015994_1720
40165 Crater in Utopia Planitia region 40.212 93.483 1 2009-12-14 ESP_015994_2205
40167 Plains northeast of Zea Dorsa -46.047 78.641 1 2009-12-14 ESP_015995_1335
40169 West Nili Fossae chlorite crater ejecta blanket 19.460 69.580 1 2009-12-14 ESP_015995_1995
40171 Channel in Mamers Valles crater with possible phyllosilicate 35.257 13.500 1 2009-12-14 ESP_015997_2155
40173 Pyroxene-rich terrain in Valles Marineris -13.070 297.423 1 2009-12-14 ESP_016000_1670
40175 Possible phyllosilicate deposit in Valles Marineris -4.892 268.520 1 2009-12-14 ESP_016001_1750
40177 Possible phyllosilicate in crater excavating dark material -4.001 132.840 1 2009-12-14 ESP_016006_1760
40179 Depression with layered walls in Sisyphi Planum -66.367 4.873 1 2009-12-14 ESP_016011_1135
40181 Massif with radial troughs in Viking 072A02 38.085 347.491 1 2009-12-14 ESP_016011_2185
40183 Gullied crater wall -46.665 279.304 1 2009-12-14 ESP_016014_1330
40185 Gullied crater wall -47.449 170.713 1 2009-12-14 ESP_016018_1320
40187 Terrain east of Kinkora Crater -24.899 113.580 1 2009-12-14 ESP_016020_1550
40189 Gullied crater wall 39.515 105.340 1 2009-12-14 ESP_016020_2200
40191 Nilosyrtis Mensae fretted terrain 44.002 76.732 1 2009-12-14 ESP_016021_2245
40193 Protonilus Mensae fretted terrain 42.145 49.930 1 2009-12-14 ESP_016022_2225
40195 Candidate light gully material in CTX image P07_003727_1355_XN_44S137W -43.854 222.486 1 2009-12-14 ESP_015937_1360
40209 Northeast Syrtis Major candidate landing site 17.830 77.111 1 2009-12-15 ESP_015942_1980
40279 Gullied central pit -41.192 171.212 1 2009-12-16 ESP_015952_1385
40281 Bedrock in a crater northwest of Hellas Planitia -28.144 53.725 1 2009-12-16 ESP_016009_1515
40283 Patterned outcrop in Hellas Planitia -33.108 71.531 1 2009-12-16 ESP_015982_1465
40287 Gullies obscured by dunes in southern Terra Sirenum -53.107 211.780 1 2009-12-17 ESP_015977_1265
40320 Gullied crater wall -40.295 225.795 1 2009-12-21 ESP_016451_1395
40323 Crater 33.558 329.619 1 2009-12-21 ESP_016025_2140
40325 Craters and valleys in the Claritas Fossae region -39.423 256.405 1 2009-12-21 ESP_016028_1400
40327 Gullied crater wall -39.343 147.240 1 2009-12-21 ESP_016032_1405
40329 Western edge of crater -14.100 116.880 1 2009-12-21 ESP_016033_1655
40331 Crater in Hellas region -50.908 66.910 1 2009-12-21 ESP_016035_1290
40333 Fretted terrain in the Protonilus and Nilosyrtis regions 38.309 55.591 1 2009-12-21 ESP_016035_2185
40335 Crater 31.101 29.186 1 2009-12-21 ESP_016036_2115
40337 Possible olivine-rich terrain 33.031 306.170 1 2009-12-21 ESP_016039_2135
40339 Gullied crater wall -39.443 234.262 1 2009-12-21 ESP_016042_1400
40341 Gullied crater wall -37.181 124.142 1 2009-12-21 ESP_016046_1425
40343 Syrtis region 20.500 62.794 1 2009-12-21 ESP_016048_2005
40345 Phyllosilicates in Mawrth Vallis 25.350 340.302 1 2009-12-21 ESP_016051_2055
40347 Possible phyllosilicates in Nirgal Vallis -28.090 319.652 1 2009-12-21 ESP_038957_1515
40349 Possible sulfates in Ophir Chasma -4.270 289.040 1 2009-12-21 ESP_016053_1755
40351 Possible phyllosilicate-rich terrain -28.400 183.400 1 2009-12-21 ESP_016057_1515
40353 Northeast Zea Dorsa plains -46.596 76.830 1 2009-12-21 ESP_016061_1330
40355 Possible phyllosilicate-rich terrain -8.351 71.550 1 2009-12-21 ESP_016061_1715
40357 Light toned outcrops in Trouvelot Crater 15.580 346.670 1 2009-12-21 ESP_016064_1960
40359 Possible pyroxene-rich terrain -11.520 295.323 1 2009-12-21 ESP_016066_1685
40361 Gullied crater wall -40.264 217.061 1 2009-12-21 ESP_016069_1395
40363 Gullied crater wall -46.500 163.575 1 2009-12-21 ESP_016071_1330
40365 Athabasca Valles 8.950 155.675 1 2009-12-21 ESP_016071_1890
40367 Craters in Hellas region -32.526 79.441 1 2009-12-21 ESP_016074_1470
40369 Possible large phyllosilicate deposit near Nili Fossae 20.210 72.730 1 2009-12-21 ESP_016074_2005
40371 Fretted terrain 37.279 15.279 1 2009-12-21 ESP_016076_2175
40373 Gullied crater wall -41.177 168.516 1 2009-12-21 ESP_016084_1385
40375 Terrain in the Tartarus Colles 10.410 160.840 1 2009-12-21 ESP_016084_1905
40377 Possible Noachian olivine at the edge of Isidis Planitia 14.080 78.872 1 2009-12-21 ESP_016087_1940
40379 Crater rim in Noachis Terra -40.162 31.288 1 2009-12-21 ESP_016089_1395
40381 Gullied crater wall 49.524 325.167 1 2009-12-21 ESP_016091_2300
40383 Terrain west of Icaria Planum -40.000 227.488 1 2009-12-21 ESP_016095_1395
40385 Crater in Terra Sirenum -66.234 207.375 1 2009-12-21 ESP_016096_1135
40387 Nicholson Crater 0.061 194.904 1 2009-12-21 ESP_016096_1800
40389 Gullied crater wall 48.702 79.877 1 2009-12-21 ESP_016100_2290
40391 Possible phyllosilicate-rich terrain 35.490 26.300 1 2009-12-21 ESP_016102_2160
40393 Craters with inner terraces in Noachis Terra -33.818 340.277 1 2009-12-21 ESP_016104_1460
40395 Possible phyllosilicates in Her Desher Vallis -25.270 312.270 1 2009-12-21 ESP_016105_1545
40397 Scarp in Claritas Fossae -26.810 257.900 1 2009-12-21 ESP_016107_1530
40399 Crater near Arcadia Dorsa 50.335 219.673 1 2009-12-21 ESP_016108_2305
40401 Terrain near Elysium Mons 25.000 142.500 1 2009-12-21 ESP_016111_2055
40403 Dark filamentary streak in Promethei region -53.119 125.405 1 2009-12-21 ESP_016112_1265
40409 Lunae Planum 24.091 296.003 1 2009-12-22
40411 Medusae Fossae formation 3.609 216.704 1 2009-12-22 ESP_016082_1835
40417 Coordinated CRISM Volcano Scan calibration 18.330 226.908 1 2009-12-22 ESP_016042_1985
40419 Rim of a crater in Noachis Terra -36.446 8.498 1 2009-12-22 ESP_016103_1435
40421 North polar layered deposits 86.361 147.985 1 2009-12-22 ESP_016109_2665

Each suggestion is given a unique ID. A stereo suggestion will be made into a pair at the discretion of the Science Theme Lead.

Suggestion title.

Latitudes are expressed in planetocentric degrees.

Longitude are measured in degrees and range east from 0 to 360.

1 for a single suggestion, STEREO for a stereo suggestion, otherwise the number of suggestions in a seasonal or other repeat set.

The date on which the suggestion was created.

If the suggestion has been retired, a link to the observation page.

The username of the suggester.